KC2G Weather Reports


time (UTC)temp
F
wind
direction
speed
knots
gust
knots
rain 1hr
in
rain 24hr
in
rain mn
in
humidity
%
barometer
mb
20260506121554 66 144 1.7 2.6 0.00 0.00 0.00 78 1008.8
20260506120055 66 237 0.9 2.6 0.00 0.00 0.00 78 1008.9
20260506114555 66 149 1.7 3.5 0.00 0.00 0.00 79 1009.0
20260506113055 65 182 0.9 2.6 0.00 0.00 0.00 79 1008.9
20260506111555 64 112 0.9 2.6 0.00 0.00 0.00 82 1009.0
20260506110055 63 92 0.9 1.7 0.00 0.00 0.00 84 1008.9
20260506104555 63 47 0.0 0.9 0.00 0.00 0.00 87 1009.1
20260506103055 62 89 0.9 1.7 0.00 0.00 0.00 88 1008.9
20260506101730 61 117 0.0 0.9 0.00 0.00 0.00 90 1008.9
20260506101554 61 117 0.0 0.9 0.00 0.00 0.00 90 1008.9
20260506100055 61 62 0.0 0.9 0.00 0.00 0.00 89 1008.8
20260506095423 61 88 0.9 0.9 0.00 0.00 0.00 88 1008.7
20260506094554 61 78 0.9 1.7 0.00 0.00 0.00 89 1008.8
20260506093055 61 88 0.9 0.9 0.00 0.00 0.00 88 1008.7
20260506092224 62 49 0.0 0.9 0.00 0.00 0.00 87 1008.8
20260506091555 61 80 0.0 0.9 0.00 0.00 0.00 88 1008.7
20260506090055 62 49 0.0 0.9 0.00 0.00 0.00 87 1008.8
20260506084556 62 70 0.9 1.7 0.00 0.00 0.00 86 1008.8
20260506083055 63 83 0.0 0.9 0.00 0.00 0.00 84 1008.8
20260506081555 63 96 0.0 0.9 0.00 0.00 0.00 83 1008.8
20260506073055 64 75 0.0 0.9 0.00 0.00 0.00 77 1008.7
20260506071554 65 86 0.0 0.9 0.00 0.00 0.00 75 1008.8
20260506071409 66 138 0.9 1.7 0.00 0.00 0.00 73 1008.8
20260506061554 66 153 0.9 0.9 0.00 0.00 0.00 72 1008.7
20260506044555 68 131 0.9 3.5 0.00 0.00 0.00 64 1009.1
20260506043054 68 121 0.9 3.5 0.00 0.00 0.00 64 1009.0
20260506041656 68 141 0.9 1.7 0.00 0.00 0.00 63 1008.9
20260506041555 68 141 0.9 1.7 0.00 0.00 0.00 63 1008.9
20260506040203 69 218 0.9 1.7 0.00 0.00 0.00 61 1008.8
20260506040145 68 116 0.9 1.7 0.00 0.00 0.00 63 1008.8
20260506040054 68 116 0.9 1.7 0.00 0.00 0.00 63 1008.8
20260506034555 69 149 0.9 1.7 0.00 0.00 0.00 61 1008.9
20260506033055 69 218 0.9 1.7 0.00 0.00 0.00 61 1008.8
20260506033005 71 145 0.9 2.6 0.00 0.00 0.00 57 1008.6
20260506031554 70 141 0.9 2.6 0.00 0.00 0.00 59 1008.7
20260506030055 71 145 0.9 2.6 0.00 0.00 0.00 57 1008.6
20260506025808 72 142 1.7 2.6 0.00 0.00 0.00 51 1008.4
20260506024554 72 121 0.9 1.7 0.00 0.00 0.00 54 1008.5
20260506023221 72 142 1.7 2.6 0.00 0.00 0.00 51 1008.4
20260506023056 72 142 1.7 2.6 0.00 0.00 0.00 51 1008.4
20260506022607 73 177 1.7 3.5 0.00 0.00 0.00 46 1008.1
20260506021554 73 146 0.0 1.7 0.00 0.00 0.00 48 1008.3
20260506020055 73 177 1.7 3.5 0.00 0.00 0.00 46 1008.1
20260506015412 74 175 0.0 1.7 0.00 0.00 0.00 44 1007.7
20260506014554 74 183 0.9 1.7 0.00 0.00 0.00 45 1007.8
20260506013142 74 175 0.0 1.7 0.00 0.00 0.00 44 1007.7
20260506013055 74 175 0.0 1.7 0.00 0.00 0.00 44 1007.7
20260506011555 75 189 0.9 3.5 0.00 0.00 0.00 42 1007.5
20260506010054 75 119 0.9 2.6 0.00 0.00 0.00 40 1007.4
20260506004555 75 223 0.9 2.6 0.00 0.00 0.00 38 1007.2
20260506003055 76 238 0.9 1.7 0.00 0.00 0.00 37 1006.9
20260506001554 76 138 1.7 2.6 0.00 0.00 0.00 36 1006.7
20260506000055 77 136 0.9 1.7 0.00 0.00 0.00 34 1006.7
20260505234555 80 223 1.7 4.3 0.00 0.00 0.00 30 1005.7
20260505233055 80 218 1.7 4.3 0.00 0.00 0.00 30 1005.7
20260505231755 80 218 1.7 4.3 0.00 0.00 0.00 30 1005.7
20260505231555 80 218 1.7 4.3 0.00 0.00 0.00 30 1005.7
20260505230055 80 218 1.7 4.3 0.00 0.00 0.00 30 1005.7
20260505224849 80 218 1.7 4.3 0.00 0.00 0.00 30 1005.7
20260505224555 80 218 1.7 4.3 0.00 0.00 0.00 30 1005.7
20260505223054 80 218 1.7 4.3 0.00 0.00 0.00 30 1005.7
20260505221554 80 218 1.7 4.3 0.00 0.00 0.00 30 1005.7
20260505220055 80 218 1.7 4.3 0.00 0.00 0.00 30 1005.7
20260505214554 81 219 1.7 5.2 0.00 0.00 0.00 30 1005.4
20260505213806 81 135 2.6 7.0 0.00 0.00 0.00 30 1005.2
20260505213055 81 241 1.7 7.0 0.00 0.00 0.00 31 1005.2
20260505211555 81 135 2.6 7.0 0.00 0.00 0.00 30 1005.2
20260505210055 82 204 1.7 3.5 0.00 0.00 0.00 28 1005.2
20260505204555 82 247 1.7 7.8 0.00 0.00 0.00 29 1005.3
20260505203202 82 197 1.7 4.3 0.00 0.00 0.00 31 1005.4
20260505203054 81 228 2.6 6.1 0.00 0.00 0.00 29 1005.5
20260505201923 82 197 1.7 4.3 0.00 0.00 0.00 31 1005.4
20260505201554 82 197 1.7 4.3 0.00 0.00 0.00 31 1005.4
20260505200151 82 219 2.6 5.2 0.00 0.00 0.00 31 1005.8
20260505200055 81 130 1.7 3.5 0.00 0.00 0.00 32 1005.5
20260505194650 81 186 2.6 7.8 0.00 0.00 0.00 32 1005.7
20260505194554 81 186 2.6 7.8 0.00 0.00 0.00 32 1005.7
20260505193055 82 219 2.6 5.2 0.00 0.00 0.00 31 1005.8
20260505191554 82 203 2.6 7.8 0.00 0.00 0.00 32 1006.1
20260505190055 82 238 1.7 3.5 0.00 0.00 0.00 33 1006.1
20260505184555 82 230 1.7 5.2 0.00 0.00 0.00 35 1006.4
20260505183055 82 185 1.7 2.6 0.00 0.00 0.00 34 1006.5
20260505181554 82 213 1.7 3.5 0.00 0.00 0.00 35 1006.7
20260505180055 81 201 2.6 6.1 0.00 0.00 0.00 37 1006.9
20260505174636 81 205 1.7 3.5 0.00 0.00 0.00 39 1007.0
20260505174554 81 205 1.7 3.5 0.00 0.00 0.00 39 1007.0
20260505173055 80 112 1.7 3.5 0.00 0.00 0.00 41 1007.3
20260505171554 80 90 2.6 5.2 0.00 0.00 0.00 42 1007.4
20260505170056 80 97 1.7 3.5 0.00 0.00 0.00 43 1007.7
20260505164717 79 228 1.7 3.5 0.00 0.00 0.00 44 1007.9
20260505164555 79 228 1.7 3.5 0.00 0.00 0.00 44 1007.9
20260505163055 78 104 1.7 2.6 0.00 0.00 0.00 45 1008.1
20260505161555 78 122 1.7 3.5 0.00 0.00 0.00 46 1008.3
20260505153055 76 163 1.7 3.5 0.00 0.00 0.00 48 1009.0
20260505151554 75 196 0.9 1.7 0.00 0.00 0.00 51 1009.1
20260505151347 73 186 2.6 5.2 0.00 0.00 0.00 54 1009.7
20260505124555 66 107 0.0 0.9 0.00 0.00 0.00 69 1010.1
20260505123357 58 132 0.9 1.7 0.00 0.00 0.00 83 1010.8
20260505123055 61 129 0.0 0.9 0.00 0.00 0.00 76 1010.4